Погода в Михайловском

Россия / Нижегородская область     56°11′12″N   45°46′52″E
темп.,
°C
ветер,
м/с
пор.,
м/с
влажн.,
%
обл.,
%
осадки,
мм/ч
давл.,
гПа
погр.,
м
13 мая, чт
чт1300:00+17юв295751 0.0 1023257
03:00+14вюв237016 0.0 102344
06:00+15вюв278012 0.4 1023193
09:00+20вюв495796 0.6 1022528
12:00+23вюв51050100 0.0 10211046
15:00+20в5106595 0.2 1019513
18:00+20юв51164100 0.0 10181003
21:00+17юв3128436 0.2 1018371
14 мая, пт
пт1400:00+15ю3109111 1.1 1018322
03:00+13ю229766 1.1 101928
06:00+15ю0191100 0.0 101984
09:00+20ююз1274100 0.0 1019529
12:00+22ююз2362100 0.0 10191191
15:00+23ююз346265 0.8 10191241
18:00+22юз137169 0.5 1018215
21:00+17в118557 0.5 101811
15 мая, сб
сб1500:00+16вюв2290100 0.0 101815
03:00+16вюв2789100 0.0 1017144
06:00+18юв2884100 0.0 1016220
09:00+23ю5855100 0.0 1015596
12:00+26ю61143100 0.0 1015927
15:00+27ю6134491 0.0 10141448
18:00+23ююз612534 0.0 10141033
21:00+18ю3127673 0.0 1014318
16 мая, вс
вс1600:00+16ююз238384 0.0 101456
03:00+15ю11885 0.0 101413
06:00+17ююз2479100 0.0 1014149
09:00+22юз3564100 0.0 1014749
12:00+24юз4749100 0.0 10151491
15:00+24юз58495 0.0 10141741
18:00+22зюз37592 0.0 1014768
21:00+17юз25790 0.0 101492
17 мая, пн
пн1700:00+14юз24880 0.1 101580
03:00+13юз23890 0.1 101663
06:00+16зюз26780 0.0 1017211
09:00+21зюз35563 0.0 1017904
12:00+24зюз354289 0.0 10171428
15:00+25зюз35406 0.0 10171619
18:00+23юз235723 0.0 1017136
21:00+18ююв017214 0.0 101711